Weather History for KTNU - January, 2014

Change the Weather History Date:

Saturday, January 18, 2014

  Actual Average Record
Temperature  
Mean Temperature 22 °F -  
Max Temperature 35 °F 28 °F 54 °F (1972)
Min Temperature 8 °F 11 °F -15 °F (1970)
Degree Days  
Heating Degree Days 44    
Moisture  
Dew Point 18 °F    
Average Humidity 82    
Maximum Humidity 100    
Minimum Humidity 58    
Precipitation  
Precipitation 0.01 in - - ()
Sea Level Pressure  
Sea Level Pressure 29.74 in    
Wind  
Wind Speed 12 mph (West)    
Max Wind Speed 24 mph    
Max Gust Speed 36 mph    
Visibility 9 miles    
Events Rain , Snow    
Averages and records for this station are not official NWS values.
T = Trace of Precipitation, MM = Missing Value Source: NWS Daily Summary

Daily Weather History Graph

Daily Weather History Graph

Search for Another Location

Airport or City:

Trip Planner

Search our weather history database for the weather conditions in past years. The results will help you decide how hot, cold, wet, or windy it might be!

Date:

Astronomy

Jan. 18, 2014 Rise Set
Actual Time 7:35 AM CST 5:10 PM CST
Civil Twilight 7:04 AM CST 5:40 PM CST
Nautical Twilight 6:30 AM CST 6:14 PM CST
Astronomical Twilight 5:57 AM CST 6:48 PM CST
Moon 7:55 PM CST (1/18) 8:32 AM CST (1/18)
Length of Visible Light 10h 36m
Length of Day
9h 35m
Waning Gibbous, 94% of the Moon is Illuminated
Jan 18
Waning Gibbous
Jan 23
Last Quarter
Jan 30
New
Feb 6
First Quarter
Feb 14
Full

Hourly Weather History & Observations

Time (CST) Temp. Windchill Dew Point Humidity Pressure Visibility Wind Dir Wind Speed Gust Speed Precip Events Conditions
12:15 AM 8.6 °F -1.3 °F 5.0 °F 85% 29.89 in 10.0 mi South 5.8 mph - N/A   Clear
12:35 AM 10.4 °F -0.4 °F 5.0 °F 79% 29.87 in 10.0 mi SSE 6.9 mph - N/A   Mostly Cloudy
12:55 AM 8.6 °F -3.7 °F 5.0 °F 85% 29.86 in 10.0 mi SSE 8.1 mph - N/A   Partly Cloudy
1:15 AM 10.4 °F -1.5 °F 5.0 °F 79% 29.85 in 10.0 mi South 8.1 mph - N/A   Mostly Cloudy
1:35 AM 12.2 °F -1.0 °F 6.8 °F 79% 29.82 in 10.0 mi SSE 10.4 mph - N/A   Mostly Cloudy
1:55 AM 14.0 °F 1.2 °F 6.8 °F 73% 29.81 in 10.0 mi SSE 10.4 mph - N/A   Overcast
2:15 AM 15.8 °F 2.7 °F 6.8 °F 68% 29.79 in 10.0 mi SSE 11.5 mph - N/A   Mostly Cloudy
2:35 AM 15.8 °F 2.1 °F 6.8 °F 68% 29.79 in 10.0 mi SSE 12.7 mph - N/A   Overcast
2:55 AM 15.8 °F 1.4 °F 6.8 °F 68% 29.78 in 10.0 mi SSE 13.8 mph - N/A   Overcast
3:15 AM 17.6 °F 3.7 °F 6.8 °F 63% 29.74 in 10.0 mi SSE 13.8 mph - N/A   Overcast
3:35 AM 17.6 °F 3.2 °F 8.6 °F 68% 29.71 in 10.0 mi SSE 15.0 mph - N/A   Overcast
3:55 AM 19.4 °F 5.0 °F 6.8 °F 58% 29.68 in 10.0 mi SSE 16.1 mph - N/A   Overcast
4:15 AM 19.4 °F 5.0 °F 8.6 °F 63% 29.65 in 10.0 mi SSE 16.1 mph 23.0 mph N/A   Overcast
4:35 AM 21.2 °F 6.8 °F 8.6 °F 58% 29.62 in 10.0 mi SSE 17.3 mph - N/A   Overcast
4:55 AM 21.2 °F 6.8 °F 10.4 °F 63% 29.60 in 10.0 mi SSE 17.3 mph - N/A   Overcast
5:15 AM 21.2 °F 9.5 °F 10.4 °F 63% 29.60 in 10.0 mi South 11.5 mph - N/A   Overcast
5:35 AM 21.2 °F 10.1 °F 12.2 °F 68% 29.59 in 10.0 mi South 10.4 mph - N/A   Overcast
5:55 AM 23.0 °F 10.1 °F 12.2 °F 63% 29.56 in 10.0 mi South 15.0 mph - N/A   Overcast
6:15 AM 23.0 °F 11.7 °F 12.2 °F 63% 29.56 in 10.0 mi South 11.5 mph - N/A   Overcast
6:35 AM 23.0 °F 11.7 °F 14.0 °F 68% 29.54 in 10.0 mi South 11.5 mph 17.3 mph N/A   Overcast
6:55 AM 24.8 °F 16.9 °F 15.8 °F 69% 29.54 in 8.0 mi SSW 6.9 mph 13.8 mph N/A   Mostly Cloudy
7:15 AM 26.6 °F 14.7 °F 19.4 °F 74% 29.53 in 5.0 mi SW 15.0 mph - N/A Snow Light Snow
7:35 AM 26.6 °F 16.8 °F 21.2 °F 80% 29.52 in 10.0 mi SSW 10.4 mph - N/A   Overcast
7:55 AM 26.6 °F 16.2 °F 24.8 °F 93% 29.51 in 0.2 mi SW 11.5 mph - N/A Snow Light Snow
8:15 AM 26.6 °F 16.8 °F 26.6 °F 100% 29.51 in 2.0 mi SW 10.4 mph - N/A Snow Light Snow
8:35 AM 28.4 °F 18.5 °F 26.6 °F 93% 29.51 in 0.8 mi SW 11.5 mph - N/A Snow Light Snow
8:55 AM 28.4 °F 19.7 °F 26.6 °F 93% 29.51 in 1.8 mi SW 9.2 mph - N/A Snow Light Snow
9:15 AM 28.4 °F 19.7 °F 28.4 °F 100% 29.52 in 6.0 mi SW 9.2 mph - N/A   Mostly Cloudy
9:35 AM 32.0 °F 24.2 °F 30.2 °F 93% 29.52 in 10.0 mi West 9.2 mph - N/A   Overcast
9:55 AM 33.8 °F 25.8 °F 32.0 °F 93% 29.53 in 2.0 mi West 10.4 mph - N/A Snow Light Snow
10:15 AM 35.6 °F 27.1 °F 33.8 °F 93% 29.54 in 9.0 mi WNW 12.7 mph 19.6 mph N/A   Overcast
10:35 AM 35.6 °F 26.2 °F 33.8 °F 93% 29.54 in 10.0 mi WNW 15.0 mph - N/A   Overcast
10:55 AM 35.6 °F 27.5 °F 33.8 °F 93% 29.54 in 10.0 mi WNW 11.5 mph - N/A   Overcast
11:15 AM 35.6 °F 25.9 °F 33.8 °F 93% 29.54 in 10.0 mi WNW 16.1 mph 21.9 mph N/A   Overcast
11:35 AM 35.6 °F 26.2 °F 33.8 °F 93% 29.54 in 9.0 mi WNW 15.0 mph - N/A   Overcast
11:55 AM 35.6 °F 27.5 °F 33.8 °F 93% 29.54 in 9.0 mi WNW 11.5 mph 19.6 mph 0.01 in   Overcast
12:15 PM 35.6 °F 26.6 °F 33.8 °F 93% 29.54 in 10.0 mi WNW 13.8 mph - N/A   Overcast
12:35 PM 35.6 °F 29.2 °F 33.8 °F 93% 29.54 in 3.0 mi WNW 8.1 mph - N/A Rain Light Rain
12:55 PM 35.6 °F 25.5 °F 33.8 °F 93% 29.55 in 8.0 mi WNW 17.3 mph 26.5 mph N/A   Overcast
1:15 PM 33.8 °F 24.3 °F 33.8 °F 100% 29.56 in 9.0 mi NW 13.8 mph 19.6 mph N/A   Overcast
1:35 PM 33.8 °F 24.8 °F 33.8 °F 100% 29.57 in 9.0 mi NW 12.7 mph - N/A   Overcast
1:55 PM 33.8 °F 21.3 °F 32.0 °F 93% 29.59 in 10.0 mi North 24.2 mph 35.7 mph N/A   Overcast
2:15 PM 32.0 °F 19.8 °F 30.2 °F 93% 29.62 in 10.0 mi North 20.7 mph 29.9 mph N/A   Overcast
2:35 PM 30.2 °F 17.4 °F 28.4 °F 93% 29.66 in 7.0 mi North 20.7 mph 33.4 mph N/A   Overcast
2:55 PM 26.6 °F 11.7 °F 24.8 °F 93% 29.70 in 8.0 mi North 24.2 mph 34.5 mph N/A   Overcast
3:15 PM 24.8 °F 9.6 °F 21.2 °F 86% 29.74 in 7.0 mi North 23.0 mph 31.1 mph N/A   Overcast
3:35 PM 23.0 °F 6.9 °F 19.4 °F 86% 29.77 in 8.0 mi North 24.2 mph 35.7 mph N/A   Overcast
3:55 PM 23.0 °F 7.6 °F 19.4 °F 86% 29.80 in 5.0 mi North 21.9 mph 29.9 mph N/A   Light Freezing Rain
4:15 PM 21.2 °F 4.9 °F 17.6 °F 86% 29.83 in 8.0 mi North 23.0 mph 32.2 mph N/A   Overcast
4:35 PM 21.2 °F 6.4 °F 17.6 °F 86% 29.86 in 7.0 mi North 18.4 mph 27.6 mph N/A Snow Light Snow
4:55 PM 21.2 °F 6.4 °F 15.8 °F 80% 29.89 in 9.0 mi North 18.4 mph 24.2 mph N/A   Overcast
5:15 PM 19.4 °F 6.0 °F 14.0 °F 80% 29.91 in 9.0 mi North 13.8 mph 25.3 mph N/A   Overcast
5:35 PM 19.4 °F 5.5 °F 14.0 °F 80% 29.93 in 9.0 mi North 15.0 mph 23.0 mph N/A   Overcast
5:55 PM 19.4 °F 3.2 °F 14.0 °F 80% 29.95 in 10.0 mi North 20.7 mph 26.5 mph N/A   Overcast
6:15 PM 17.6 °F 1.3 °F 12.2 °F 79% 29.96 in 10.0 mi NNW 19.6 mph - N/A   Mostly Cloudy
6:35 PM 17.6 °F 2.2 °F 12.2 °F 79% 29.98 in 10.0 mi NNW 17.3 mph - N/A   Clear
6:55 PM 17.6 °F 3.2 °F 12.2 °F 79% 29.99 in 10.0 mi NNW 15.0 mph 23.0 mph N/A   Clear
7:15 PM 17.6 °F 3.7 °F 12.2 °F 79% 29.99 in 10.0 mi NW 13.8 mph - N/A   Clear
7:35 PM 15.8 °F 1.4 °F 12.2 °F 86% 30.00 in 10.0 mi NW 13.8 mph - N/A   Clear
7:55 PM 15.8 °F 1.4 °F 12.2 °F 86% 29.99 in 10.0 mi NNW 13.8 mph - N/A   Clear
8:15 PM 15.8 °F 2.1 °F 10.4 °F 79% 30.00 in 10.0 mi NNW 12.7 mph - N/A   Clear
8:35 PM 15.8 °F 3.4 °F 10.4 °F 79% 29.99 in 10.0 mi NW 10.4 mph - N/A   Clear
8:55 PM 15.8 °F 5.1 °F 10.4 °F 79% 29.99 in 10.0 mi NW 8.1 mph - N/A   Clear
9:15 PM 15.8 °F 4.2 °F 10.4 °F 79% 29.99 in 10.0 mi NW 9.2 mph - N/A   Clear
9:35 PM 15.8 °F 5.1 °F 10.4 °F 79% 29.99 in 10.0 mi WNW 8.1 mph - N/A   Clear
9:55 PM 14.0 °F 3.9 °F 10.4 °F 86% 30.00 in 10.0 mi West 6.9 mph - N/A   Clear
10:15 PM 14.0 °F 2.0 °F 10.4 °F 86% 30.00 in 10.0 mi West 9.2 mph - N/A   Clear
10:35 PM 14.0 °F 2.9 °F 10.4 °F 86% 30.00 in 10.0 mi West 8.1 mph - N/A   Clear
10:55 PM 14.0 °F 2.0 °F 10.4 °F 86% 29.99 in 10.0 mi West 9.2 mph - N/A   Clear
11:15 PM 15.8 °F 6.1 °F 12.2 °F 86% 29.98 in 10.0 mi West 6.9 mph - N/A   Clear
11:35 PM 15.8 °F 3.4 °F 12.2 °F 86% 29.97 in 10.0 mi WSW 10.4 mph - N/A   Clear
11:55 PM 15.8 °F 2.1 °F 12.2 °F 86% 29.97 in 10.0 mi West 12.7 mph - N/A   Clear